Year,Month,Day,Hour,Minute,Value (Times are PST for insolation in W/m^2)
2020,03,29,00,00,0.00
2020,03,29,00,01,0.00
2020,03,29,00,02,0.00
2020,03,29,00,03,0.00
2020,03,29,00,04,0.00
2020,03,29,00,05,0.00
2020,03,29,00,06,0.00
2020,03,29,00,07,0.00
2020,03,29,00,08,0.00
2020,03,29,00,09,0.00
2020,03,29,00,10,0.00
2020,03,29,00,11,0.00
2020,03,29,00,12,0.00
2020,03,29,00,13,0.00
2020,03,29,00,14,0.00
2020,03,29,00,15,0.00
2020,03,29,00,16,0.00
2020,03,29,00,17,0.00
2020,03,29,00,18,0.00
2020,03,29,00,19,0.00
2020,03,29,00,20,0.00
2020,03,29,00,21,0.00
2020,03,29,00,22,0.00
2020,03,29,00,23,0.00
2020,03,29,00,24,0.00
2020,03,29,00,25,0.00
2020,03,29,00,26,0.00
2020,03,29,00,27,0.00
2020,03,29,00,28,0.00
2020,03,29,00,29,0.00
2020,03,29,00,30,0.00
2020,03,29,00,31,0.00
2020,03,29,00,32,0.00
2020,03,29,00,33,0.00
2020,03,29,00,34,0.00
2020,03,29,00,35,0.00
2020,03,29,00,36,0.00
2020,03,29,00,37,0.00
2020,03,29,00,38,0.00
2020,03,29,00,39,0.00
2020,03,29,00,40,0.00
2020,03,29,00,41,0.00
2020,03,29,00,42,0.00
2020,03,29,00,43,0.00
2020,03,29,00,44,0.00
2020,03,29,00,45,0.00
2020,03,29,00,46,0.00
2020,03,29,00,47,0.00
2020,03,29,00,48,0.00
2020,03,29,00,49,0.00
2020,03,29,00,50,0.00
2020,03,29,00,51,0.00
2020,03,29,00,52,0.00
2020,03,29,00,53,0.00
2020,03,29,00,54,0.00
2020,03,29,00,55,0.00
2020,03,29,00,56,0.00
2020,03,29,00,57,0.00
2020,03,29,00,58,0.00
2020,03,29,00,59,0.00
2020,03,29,01,00,0.00
2020,03,29,01,01,0.00
2020,03,29,01,02,0.00
2020,03,29,01,03,0.00
2020,03,29,01,04,0.00
2020,03,29,01,05,0.00
2020,03,29,01,06,0.00
2020,03,29,01,07,0.00
2020,03,29,01,08,0.00
2020,03,29,01,09,0.00
2020,03,29,01,10,0.00
2020,03,29,01,11,0.00
2020,03,29,01,12,0.00
2020,03,29,01,13,0.00
2020,03,29,01,14,0.00
2020,03,29,01,15,0.00
2020,03,29,01,16,0.00
2020,03,29,01,17,0.00
2020,03,29,01,18,0.00
2020,03,29,01,19,0.00
2020,03,29,01,20,0.00
2020,03,29,01,21,0.00
2020,03,29,01,22,0.00
2020,03,29,01,23,0.00
2020,03,29,01,24,0.00
2020,03,29,01,25,0.00
2020,03,29,01,26,0.00
2020,03,29,01,27,0.00
2020,03,29,01,28,0.00
2020,03,29,01,29,0.00
2020,03,29,01,30,0.00
2020,03,29,01,31,0.00
2020,03,29,01,32,0.00
2020,03,29,01,33,0.00
2020,03,29,01,34,0.00
2020,03,29,01,35,0.00
2020,03,29,01,36,0.00
2020,03,29,01,37,0.00
2020,03,29,01,38,0.00
2020,03,29,01,39,0.00
2020,03,29,01,40,0.00
2020,03,29,01,41,0.00
2020,03,29,01,42,0.00
2020,03,29,01,43,0.00
2020,03,29,01,44,0.00
2020,03,29,01,45,0.00
2020,03,29,01,46,0.00
2020,03,29,01,47,0.00
2020,03,29,01,48,0.00
2020,03,29,01,49,0.00
2020,03,29,01,50,0.00
2020,03,29,01,51,0.00
2020,03,29,01,52,0.00
2020,03,29,01,53,0.00
2020,03,29,01,54,0.00
2020,03,29,01,55,0.00
2020,03,29,01,56,0.00
2020,03,29,01,57,0.00
2020,03,29,01,58,0.00
2020,03,29,01,59,0.00
2020,03,29,02,00,0.00
2020,03,29,02,01,0.00
2020,03,29,02,02,0.00
2020,03,29,02,03,0.00
2020,03,29,02,04,0.00
2020,03,29,02,05,0.00
2020,03,29,02,06,0.00
2020,03,29,02,07,0.00
2020,03,29,02,08,0.00
2020,03,29,02,09,0.00
2020,03,29,02,10,0.00
2020,03,29,02,11,0.00
2020,03,29,02,12,0.00
2020,03,29,02,13,0.00
2020,03,29,02,14,0.00
2020,03,29,02,15,0.00
2020,03,29,02,16,0.00
2020,03,29,02,17,0.00
2020,03,29,02,18,0.00
2020,03,29,02,19,0.00
2020,03,29,02,20,0.00
2020,03,29,02,21,0.00
2020,03,29,02,22,0.00
2020,03,29,02,23,0.00
2020,03,29,02,24,0.00
2020,03,29,02,25,0.00
2020,03,29,02,26,0.00
2020,03,29,02,27,0.00
2020,03,29,02,28,0.00
2020,03,29,02,29,0.00
2020,03,29,02,30,0.00
2020,03,29,02,31,0.00
2020,03,29,02,32,0.00
2020,03,29,02,33,0.00
2020,03,29,02,34,0.00
2020,03,29,02,35,0.00
2020,03,29,02,36,0.00
2020,03,29,02,37,0.00
2020,03,29,02,38,0.00
2020,03,29,02,39,0.00
2020,03,29,02,40,0.00
2020,03,29,02,41,0.00
2020,03,29,02,42,0.00
2020,03,29,02,43,0.00
2020,03,29,02,44,0.00
2020,03,29,02,45,0.00
2020,03,29,02,46,0.00
2020,03,29,02,47,0.00
2020,03,29,02,48,0.00
2020,03,29,02,49,0.00
2020,03,29,02,50,0.00
2020,03,29,02,51,0.00
2020,03,29,02,52,0.00
2020,03,29,02,53,0.00
2020,03,29,02,54,0.00
2020,03,29,02,55,0.00
2020,03,29,02,56,0.00
2020,03,29,02,57,0.00
2020,03,29,02,58,0.00
2020,03,29,02,59,0.00
2020,03,29,03,00,0.00
2020,03,29,03,01,0.00
2020,03,29,03,02,0.00
2020,03,29,03,03,0.00
2020,03,29,03,04,0.00
2020,03,29,03,05,0.00
2020,03,29,03,06,0.00
2020,03,29,03,07,0.00
2020,03,29,03,08,0.00
2020,03,29,03,09,0.00
2020,03,29,03,10,0.00
2020,03,29,03,11,0.00
2020,03,29,03,12,0.00
2020,03,29,03,13,0.00
2020,03,29,03,14,0.00
2020,03,29,03,15,0.00
2020,03,29,03,16,0.00
2020,03,29,03,17,0.00
2020,03,29,03,18,0.00
2020,03,29,03,19,0.00
2020,03,29,03,20,0.00
2020,03,29,03,21,0.00
2020,03,29,03,22,0.00
2020,03,29,03,23,0.00
2020,03,29,03,24,0.00
2020,03,29,03,25,0.00
2020,03,29,03,26,0.00
2020,03,29,03,27,0.00
2020,03,29,03,28,0.00
2020,03,29,03,29,0.00
2020,03,29,03,30,0.00
2020,03,29,03,31,0.00
2020,03,29,03,32,0.00
2020,03,29,03,33,0.00
2020,03,29,03,34,0.00
2020,03,29,03,35,0.00
2020,03,29,03,36,0.00
2020,03,29,03,37,0.00
2020,03,29,03,38,0.00
2020,03,29,03,39,0.00
2020,03,29,03,40,0.00
2020,03,29,03,41,0.00
2020,03,29,03,42,0.00
2020,03,29,03,43,0.00
2020,03,29,03,44,0.00
2020,03,29,03,45,0.00
2020,03,29,03,46,0.00
2020,03,29,03,47,0.00
2020,03,29,03,48,0.00
2020,03,29,03,49,0.00
2020,03,29,03,50,0.00
2020,03,29,03,51,0.00
2020,03,29,03,52,0.00
2020,03,29,03,53,0.00
2020,03,29,03,54,0.00
2020,03,29,03,55,0.00
2020,03,29,03,56,0.00
2020,03,29,03,57,0.00
2020,03,29,03,58,0.00
2020,03,29,03,59,0.00
2020,03,29,04,00,0.00
2020,03,29,04,01,0.00
2020,03,29,04,02,0.00
2020,03,29,04,03,0.00
2020,03,29,04,04,0.00
2020,03,29,04,05,0.00
2020,03,29,04,06,0.00
2020,03,29,04,07,0.00
2020,03,29,04,08,0.00
2020,03,29,04,09,0.00
2020,03,29,04,10,0.00
2020,03,29,04,11,0.00
2020,03,29,04,12,0.00
2020,03,29,04,13,0.00
2020,03,29,04,14,0.00
2020,03,29,04,15,0.00
2020,03,29,04,16,0.00
2020,03,29,04,17,0.00
2020,03,29,04,18,0.00
2020,03,29,04,19,0.00
2020,03,29,04,20,0.00
2020,03,29,04,21,0.00
2020,03,29,04,22,0.00
2020,03,29,04,23,0.00
2020,03,29,04,24,0.00
2020,03,29,04,25,0.00
2020,03,29,04,26,0.00
2020,03,29,04,27,0.00
2020,03,29,04,28,0.00
2020,03,29,04,29,0.00
2020,03,29,04,30,0.00
2020,03,29,04,31,0.00
2020,03,29,04,32,0.00
2020,03,29,04,33,0.00
2020,03,29,04,34,0.00
2020,03,29,04,35,0.00
2020,03,29,04,36,0.00
2020,03,29,04,37,0.00
2020,03,29,04,38,0.00
2020,03,29,04,39,0.00
2020,03,29,04,40,0.00
2020,03,29,04,41,0.00
2020,03,29,04,42,0.00
2020,03,29,04,43,0.00
2020,03,29,04,44,0.00
2020,03,29,04,45,0.00
2020,03,29,04,46,0.00
2020,03,29,04,47,0.00
2020,03,29,04,48,0.00
2020,03,29,04,49,0.00
2020,03,29,04,50,0.00
2020,03,29,04,51,0.00
2020,03,29,04,52,0.00
2020,03,29,04,53,0.00
2020,03,29,04,54,0.00
2020,03,29,04,55,0.00
2020,03,29,04,56,0.00
2020,03,29,04,57,0.00
2020,03,29,04,58,0.00
2020,03,29,04,59,0.00
2020,03,29,05,00,0.00
2020,03,29,05,01,0.00
2020,03,29,05,02,0.00
2020,03,29,05,03,0.00
2020,03,29,05,04,0.00
2020,03,29,05,05,0.00
2020,03,29,05,06,0.00
2020,03,29,05,07,0.00
2020,03,29,05,08,0.00
2020,03,29,05,09,0.00
2020,03,29,05,10,0.00
2020,03,29,05,11,0.00
2020,03,29,05,12,0.00
2020,03,29,05,13,0.00
2020,03,29,05,14,0.00
2020,03,29,05,15,0.00
2020,03,29,05,16,0.00
2020,03,29,05,17,0.00
2020,03,29,05,18,0.00
2020,03,29,05,19,0.00
2020,03,29,05,20,0.00
2020,03,29,05,21,0.00
2020,03,29,05,22,0.00
2020,03,29,05,23,0.00
2020,03,29,05,24,0.00
2020,03,29,05,25,0.00
2020,03,29,05,26,0.00
2020,03,29,05,27,0.00
2020,03,29,05,28,0.00
2020,03,29,05,29,0.00
2020,03,29,05,30,0.00
2020,03,29,05,31,0.00
2020,03,29,05,32,0.00
2020,03,29,05,33,0.00
2020,03,29,05,34,0.00
2020,03,29,05,35,0.00
2020,03,29,05,36,0.00
2020,03,29,05,37,0.00
2020,03,29,05,38,0.00
2020,03,29,05,39,0.00
2020,03,29,05,40,0.00
2020,03,29,05,41,0.00
2020,03,29,05,42,0.00
2020,03,29,05,43,0.00
2020,03,29,05,44,0.00
2020,03,29,05,45,0.00
2020,03,29,05,46,0.00
2020,03,29,05,47,0.00
2020,03,29,05,48,0.00
2020,03,29,05,49,0.00
2020,03,29,05,50,0.00
2020,03,29,05,51,0.00
2020,03,29,05,52,0.00
2020,03,29,05,53,0.00
2020,03,29,05,54,0.00
2020,03,29,05,55,0.00
2020,03,29,05,56,0.00
2020,03,29,05,57,0.00
2020,03,29,05,58,0.00
2020,03,29,05,59,0.00
2020,03,29,06,00,0.00
2020,03,29,06,01,0.00
2020,03,29,06,02,0.00
2020,03,29,06,03,0.00
2020,03,29,06,04,0.00
2020,03,29,06,05,0.00
2020,03,29,06,06,0.00
2020,03,29,06,07,0.00
2020,03,29,06,08,0.00
2020,03,29,06,09,0.00
2020,03,29,06,10,0.00
2020,03,29,06,11,0.00
2020,03,29,06,12,0.00
2020,03,29,06,13,0.00
2020,03,29,06,14,0.00
2020,03,29,06,15,0.00
2020,03,29,06,16,0.00
2020,03,29,06,17,0.00
2020,03,29,06,18,0.00
2020,03,29,06,19,0.00
2020,03,29,06,20,0.00
2020,03,29,06,21,0.00
2020,03,29,06,22,0.00
2020,03,29,06,23,0.00
2020,03,29,06,24,0.00
2020,03,29,06,25,0.00
2020,03,29,06,26,0.00
2020,03,29,06,27,0.00
2020,03,29,06,28,0.00
2020,03,29,06,29,0.00
2020,03,29,06,30,0.00
2020,03,29,06,31,0.00
2020,03,29,06,32,0.00
2020,03,29,06,33,0.00
2020,03,29,06,34,0.00
2020,03,29,06,35,0.00
2020,03,29,06,36,0.00
2020,03,29,06,37,0.00
2020,03,29,06,38,0.00
2020,03,29,06,39,0.00
2020,03,29,06,40,0.00
2020,03,29,06,41,0.00
2020,03,29,06,42,0.00
2020,03,29,06,43,0.00
2020,03,29,06,44,0.00
2020,03,29,06,45,0.00
2020,03,29,06,46,0.00
2020,03,29,06,47,0.00
2020,03,29,06,48,0.00
2020,03,29,06,49,0.00
2020,03,29,06,50,0.00
2020,03,29,06,51,0.00
2020,03,29,06,52,0.00
2020,03,29,06,53,0.00
2020,03,29,06,54,0.00
2020,03,29,06,55,0.00
2020,03,29,06,56,0.00
2020,03,29,06,57,0.00
2020,03,29,06,58,0.00
2020,03,29,06,59,0.00
2020,03,29,07,00,0.00
2020,03,29,07,01,0.00
2020,03,29,07,02,0.00
2020,03,29,07,03,0.00
2020,03,29,07,04,1.30
2020,03,29,07,05,5.00
2020,03,29,07,06,5.00
2020,03,29,07,07,5.00
2020,03,29,07,08,6.60
2020,03,29,07,09,7.00
2020,03,29,07,10,9.00
2020,03,29,07,11,9.00
2020,03,29,07,12,9.70
2020,03,29,07,13,11.00
2020,03,29,07,14,11.00
2020,03,29,07,15,11.80
2020,03,29,07,16,12.00
2020,03,29,07,17,12.30
2020,03,29,07,18,14.00
2020,03,29,07,19,14.70
2020,03,29,07,20,16.00
2020,03,29,07,21,16.00
2020,03,29,07,22,17.60
2020,03,29,07,23,18.00
2020,03,29,07,24,19.30
2020,03,29,07,25,21.50
2020,03,29,07,26,23.00
2020,03,29,07,27,24.00
2020,03,29,07,28,25.00
2020,03,29,07,29,25.80
2020,03,29,07,30,27.80
2020,03,29,07,31,30.30
2020,03,29,07,32,32.30
2020,03,29,07,33,33.70
2020,03,29,07,34,36.00
2020,03,29,07,35,38.30
2020,03,29,07,36,39.80
2020,03,29,07,37,43.60
2020,03,29,07,38,46.10
2020,03,29,07,39,47.50
2020,03,29,07,40,49.80
2020,03,29,07,41,52.00
2020,03,29,07,42,51.70
2020,03,29,07,43,53.30
2020,03,29,07,44,57.60
2020,03,29,07,45,63.30
2020,03,29,07,46,65.00
2020,03,29,07,47,65.70
2020,03,29,07,48,69.60
2020,03,29,07,49,73.30
2020,03,29,07,50,76.30
2020,03,29,07,51,78.80
2020,03,29,07,52,83.10
2020,03,29,07,53,85.00
2020,03,29,07,54,89.20
2020,03,29,07,55,93.10
2020,03,29,07,56,96.90
2020,03,29,07,57,102.70
2020,03,29,07,58,106.70
2020,03,29,07,59,113.70
2020,03,29,08,00,119.30
2020,03,29,08,01,125.60
2020,03,29,08,02,133.60
2020,03,29,08,03,140.10
2020,03,29,08,04,147.40
2020,03,29,08,05,155.50
2020,03,29,08,06,164.20
2020,03,29,08,07,173.10
2020,03,29,08,08,182.70
2020,03,29,08,09,188.00
2020,03,29,08,10,196.80
2020,03,29,08,11,209.00
2020,03,29,08,12,217.20
2020,03,29,08,13,217.00
2020,03,29,08,14,234.00
2020,03,29,08,15,239.90
2020,03,29,08,16,252.60
2020,03,29,08,17,256.90
2020,03,29,08,18,261.10
2020,03,29,08,19,264.70
2020,03,29,08,20,267.60
2020,03,29,08,21,271.30
2020,03,29,08,22,273.60
2020,03,29,08,23,275.00
2020,03,29,08,24,276.50
2020,03,29,08,25,278.00
2020,03,29,08,26,270.00
2020,03,29,08,27,223.70
2020,03,29,08,28,270.80
2020,03,29,08,29,271.90
2020,03,29,08,30,260.20
2020,03,29,08,31,246.00
2020,03,29,08,32,241.00
2020,03,29,08,33,238.50
2020,03,29,08,34,216.90
2020,03,29,08,35,197.10
2020,03,29,08,36,189.40
2020,03,29,08,37,184.00
2020,03,29,08,38,184.30
2020,03,29,08,39,190.20
2020,03,29,08,40,200.90
2020,03,29,08,41,215.80
2020,03,29,08,42,211.40
2020,03,29,08,43,202.50
2020,03,29,08,44,191.20
2020,03,29,08,45,180.50
2020,03,29,08,46,178.30
2020,03,29,08,47,174.40
2020,03,29,08,48,184.00
2020,03,29,08,49,190.80
2020,03,29,08,50,200.40
2020,03,29,08,51,223.90
2020,03,29,08,52,237.10
2020,03,29,08,53,259.70
2020,03,29,08,54,234.10
2020,03,29,08,55,179.00
2020,03,29,08,56,179.00
2020,03,29,08,57,184.90
2020,03,29,08,58,172.40
2020,03,29,08,59,143.60
2020,03,29,09,00,131.40
2020,03,29,09,01,127.10
2020,03,29,09,02,134.10
2020,03,29,09,03,128.30
2020,03,29,09,04,132.00
2020,03,29,09,05,146.40
2020,03,29,09,06,209.20
2020,03,29,09,07,193.30
2020,03,29,09,08,159.30
2020,03,29,09,09,119.90
2020,03,29,09,10,113.00
2020,03,29,09,11,114.20
2020,03,29,09,12,118.10
2020,03,29,09,13,120.60
2020,03,29,09,14,128.00
2020,03,29,09,15,119.30
2020,03,29,09,16,141.50
2020,03,29,09,17,179.00
2020,03,29,09,18,232.80
2020,03,29,09,19,287.10
2020,03,29,09,20,312.90
2020,03,29,09,21,361.20
2020,03,29,09,22,314.60
2020,03,29,09,23,290.80
2020,03,29,09,24,203.70
2020,03,29,09,25,237.00
2020,03,29,09,26,311.10
2020,03,29,09,27,380.00
2020,03,29,09,28,380.80
2020,03,29,09,29,382.80
2020,03,29,09,30,387.10
2020,03,29,09,31,388.50
2020,03,29,09,32,386.30
2020,03,29,09,33,392.90
2020,03,29,09,34,389.50
2020,03,29,09,35,381.00
2020,03,29,09,36,406.80
2020,03,29,09,37,413.70
2020,03,29,09,38,419.00
2020,03,29,09,39,423.20
2020,03,29,09,40,427.10
2020,03,29,09,41,430.90
2020,03,29,09,42,432.00
2020,03,29,09,43,432.00
2020,03,29,09,44,407.40
2020,03,29,09,45,408.30
2020,03,29,09,46,381.50
2020,03,29,09,47,423.60
2020,03,29,09,48,433.90
2020,03,29,09,49,440.30
2020,03,29,09,50,447.20
2020,03,29,09,51,450.10
2020,03,29,09,52,439.50
2020,03,29,09,53,456.10
2020,03,29,09,54,486.30
2020,03,29,09,55,504.10
2020,03,29,09,56,445.40
2020,03,29,09,57,427.00
2020,03,29,09,58,438.00
2020,03,29,09,59,500.50
2020,03,29,10,00,495.30
2020,03,29,10,01,486.40
2020,03,29,10,02,479.90
2020,03,29,10,03,476.40
2020,03,29,10,04,476.10
2020,03,29,10,05,480.70
2020,03,29,10,06,487.90
2020,03,29,10,07,500.10
2020,03,29,10,08,511.70
2020,03,29,10,09,518.90
2020,03,29,10,10,523.10
2020,03,29,10,11,524.00
2020,03,29,10,12,521.70
2020,03,29,10,13,519.70
2020,03,29,10,14,517.40
2020,03,29,10,15,517.10
2020,03,29,10,16,520.90
2020,03,29,10,17,525.90
2020,03,29,10,18,530.70
2020,03,29,10,19,536.70
2020,03,29,10,20,541.00
2020,03,29,10,21,541.00
2020,03,29,10,22,542.90
2020,03,29,10,23,552.60
2020,03,29,10,24,557.00
2020,03,29,10,25,557.00
2020,03,29,10,26,338.00
2020,03,29,10,27,389.30
2020,03,29,10,28,537.60
2020,03,29,10,29,540.50
2020,03,29,10,30,544.80
2020,03,29,10,31,540.30
2020,03,29,10,32,554.20
2020,03,29,10,33,567.00
2020,03,29,10,34,561.00
2020,03,29,10,35,567.50
2020,03,29,10,36,574.90
2020,03,29,10,37,559.80
2020,03,29,10,38,572.20
2020,03,29,10,39,564.70
2020,03,29,10,40,563.00
2020,03,29,10,41,563.00
2020,03,29,10,42,563.40
2020,03,29,10,43,564.00
2020,03,29,10,44,566.50
2020,03,29,10,45,569.60
2020,03,29,10,46,572.70
2020,03,29,10,47,575.30
2020,03,29,10,48,577.30
2020,03,29,10,49,579.60
2020,03,29,10,50,583.60
2020,03,29,10,51,585.00
2020,03,29,10,52,586.60
2020,03,29,10,53,590.60
2020,03,29,10,54,591.40
2020,03,29,10,55,594.00
2020,03,29,10,56,594.80
2020,03,29,10,57,597.00
2020,03,29,10,58,599.90
2020,03,29,10,59,601.00
2020,03,29,11,00,602.80
2020,03,29,11,01,605.30
2020,03,29,11,02,608.50
2020,03,29,11,03,611.10
2020,03,29,11,04,614.00
2020,03,29,11,05,618.80
2020,03,29,11,06,617.90
2020,03,29,11,07,620.60
2020,03,29,11,08,624.60
2020,03,29,11,09,628.00
2020,03,29,11,10,566.10
2020,03,29,11,11,461.00
2020,03,29,11,12,461.00
2020,03,29,11,13,461.00
2020,03,29,11,14,628.10
2020,03,29,11,15,647.30
2020,03,29,11,16,651.60
2020,03,29,11,17,657.10
2020,03,29,11,18,663.30
2020,03,29,11,19,674.90
2020,03,29,11,20,684.90
2020,03,29,11,21,696.80
2020,03,29,11,22,698.00
2020,03,29,11,23,719.80
2020,03,29,11,24,782.00
2020,03,29,11,25,782.00
2020,03,29,11,26,438.20
2020,03,29,11,27,274.50
2020,03,29,11,28,288.00
2020,03,29,11,29,288.00
2020,03,29,11,30,288.00
2020,03,29,11,31,266.10
2020,03,29,11,32,229.00
2020,03,29,11,33,229.00
2020,03,29,11,34,254.90
2020,03,29,11,35,262.20
2020,03,29,11,36,262.00
2020,03,29,11,37,274.70
2020,03,29,11,38,311.00
2020,03,29,11,39,461.70
2020,03,29,11,40,624.00
2020,03,29,11,41,624.00
2020,03,29,11,42,624.00
2020,03,29,11,43,575.20
2020,03,29,11,44,187.10
2020,03,29,11,45,197.10
2020,03,29,11,46,215.90
2020,03,29,11,47,206.90
2020,03,29,11,48,192.80
2020,03,29,11,49,190.20
2020,03,29,11,50,197.00
2020,03,29,11,51,197.00
2020,03,29,11,52,187.40
2020,03,29,11,53,172.60
2020,03,29,11,54,176.50
2020,03,29,11,55,180.20
2020,03,29,11,56,182.80
2020,03,29,11,57,193.40
2020,03,29,11,58,213.00
2020,03,29,11,59,213.00
2020,03,29,12,00,213.00
2020,03,29,12,01,213.00
2020,03,29,12,02,302.20
2020,03,29,12,03,305.10
2020,03,29,12,04,301.00
2020,03,29,12,05,303.60
2020,03,29,12,06,309.10
2020,03,29,12,07,280.50
2020,03,29,12,08,253.00
2020,03,29,12,09,253.00
2020,03,29,12,10,772.10
2020,03,29,12,11,837.00
2020,03,29,12,12,694.40
2020,03,29,12,13,302.60
2020,03,29,12,14,329.00
2020,03,29,12,15,654.50
2020,03,29,12,16,834.10
2020,03,29,12,17,850.40
2020,03,29,12,18,861.00
2020,03,29,12,19,861.00
2020,03,29,12,20,654.00
2020,03,29,12,21,302.00
2020,03,29,12,22,302.00
2020,03,29,12,23,543.50
2020,03,29,12,24,628.00
2020,03,29,12,25,622.70
2020,03,29,12,26,580.00
2020,03,29,12,27,516.30
2020,03,29,12,28,408.00
2020,03,29,12,29,764.40
2020,03,29,12,30,974.00
2020,03,29,12,31,974.00
2020,03,29,12,32,974.00
2020,03,29,12,33,795.50
2020,03,29,12,34,311.00
2020,03,29,12,35,311.00
2020,03,29,12,36,634.00
2020,03,29,12,37,768.00
2020,03,29,12,38,730.80
2020,03,29,12,39,719.70
2020,03,29,12,40,642.60
2020,03,29,12,41,670.00
2020,03,29,12,42,483.90
2020,03,29,12,43,304.70
2020,03,29,12,44,299.40
2020,03,29,12,45,310.90
2020,03,29,12,46,385.70
2020,03,29,12,47,354.80
2020,03,29,12,48,351.40
2020,03,29,12,49,341.00
2020,03,29,12,50,357.50
2020,03,29,12,51,349.00
2020,03,29,12,52,343.00
2020,03,29,12,53,420.00
2020,03,29,12,54,359.90
2020,03,29,12,55,352.10
2020,03,29,12,56,396.90
2020,03,29,12,57,381.60
2020,03,29,12,58,339.70
2020,03,29,12,59,349.00
2020,03,29,13,00,296.60
2020,03,29,13,01,292.20
2020,03,29,13,02,280.10
2020,03,29,13,03,271.60
2020,03,29,13,04,269.60
2020,03,29,13,05,272.20
2020,03,29,13,06,284.40
2020,03,29,13,07,303.40
2020,03,29,13,08,322.00
2020,03,29,13,09,377.40
2020,03,29,13,10,473.30
2020,03,29,13,11,495.10
2020,03,29,13,12,508.60
2020,03,29,13,13,558.00
2020,03,29,13,14,631.00
2020,03,29,13,15,631.00
2020,03,29,13,16,607.90
2020,03,29,13,17,545.60
2020,03,29,13,18,574.90
2020,03,29,13,19,606.00
2020,03,29,13,20,481.60
2020,03,29,13,21,473.40
2020,03,29,13,22,464.90
2020,03,29,13,23,477.50
2020,03,29,13,24,518.90
2020,03,29,13,25,510.90
2020,03,29,13,26,413.50
2020,03,29,13,27,387.60
2020,03,29,13,28,393.00
2020,03,29,13,29,402.60
2020,03,29,13,30,413.00
2020,03,29,13,31,447.70
2020,03,29,13,32,455.40
2020,03,29,13,33,473.70
2020,03,29,13,34,494.50
2020,03,29,13,35,405.10
2020,03,29,13,36,454.00
2020,03,29,13,37,588.40
2020,03,29,13,38,817.00
2020,03,29,13,39,588.40
2020,03,29,13,40,516.20
2020,03,29,13,41,534.00
2020,03,29,13,42,372.60
2020,03,29,13,43,319.60
2020,03,29,13,44,281.90
2020,03,29,13,45,263.70
2020,03,29,13,46,254.90
2020,03,29,13,47,253.00
2020,03,29,13,48,259.20
2020,03,29,13,49,272.70
2020,03,29,13,50,325.40
2020,03,29,13,51,295.10
2020,03,29,13,52,282.90
2020,03,29,13,53,283.60
2020,03,29,13,54,292.40
2020,03,29,13,55,295.00
2020,03,29,13,56,311.80
2020,03,29,13,57,324.40
2020,03,29,13,58,295.10
2020,03,29,13,59,292.00
2020,03,29,14,00,293.90
2020,03,29,14,01,314.40
2020,03,29,14,02,315.60
2020,03,29,14,03,341.20
2020,03,29,14,04,337.80
2020,03,29,14,05,315.80
2020,03,29,14,06,303.40
2020,03,29,14,07,301.00
2020,03,29,14,08,297.90
2020,03,29,14,09,295.30
2020,03,29,14,10,301.00
2020,03,29,14,11,301.00
2020,03,29,14,12,301.00
2020,03,29,14,13,301.00
2020,03,29,14,14,301.60
2020,03,29,14,15,303.50
2020,03,29,14,16,304.00
2020,03,29,14,17,308.30
2020,03,29,14,18,312.20
2020,03,29,14,19,318.70
2020,03,29,14,20,329.70
2020,03,29,14,21,336.00
2020,03,29,14,22,350.60
2020,03,29,14,23,358.40
2020,03,29,14,24,363.00
2020,03,29,14,25,373.60
2020,03,29,14,26,394.30
2020,03,29,14,27,429.40
2020,03,29,14,28,434.30
2020,03,29,14,29,397.60
2020,03,29,14,30,377.40
2020,03,29,14,31,362.00
2020,03,29,14,32,340.60
2020,03,29,14,33,322.40
2020,03,29,14,34,315.40
2020,03,29,14,35,309.90
2020,03,29,14,36,302.60
2020,03,29,14,37,295.90
2020,03,29,14,38,287.30
2020,03,29,14,39,281.20
2020,03,29,14,40,274.10
2020,03,29,14,41,267.90
2020,03,29,14,42,263.10
2020,03,29,14,43,260.50
2020,03,29,14,44,257.40
2020,03,29,14,45,256.60
2020,03,29,14,46,253.50
2020,03,29,14,47,255.70
2020,03,29,14,48,257.00
2020,03,29,14,49,265.80
2020,03,29,14,50,261.40
2020,03,29,14,51,253.70
2020,03,29,14,52,250.90
2020,03,29,14,53,249.50
2020,03,29,14,54,247.30
2020,03,29,14,55,245.00
2020,03,29,14,56,245.30
2020,03,29,14,57,251.20
2020,03,29,14,58,273.30
2020,03,29,14,59,264.10
2020,03,29,15,00,265.50
2020,03,29,15,01,274.40
2020,03,29,15,02,280.70
2020,03,29,15,03,270.90
2020,03,29,15,04,267.50
2020,03,29,15,05,264.40
2020,03,29,15,06,259.60
2020,03,29,15,07,257.30
2020,03,29,15,08,257.60
2020,03,29,15,09,265.20
2020,03,29,15,10,289.70
2020,03,29,15,11,304.20
2020,03,29,15,12,351.30
2020,03,29,15,13,334.00
2020,03,29,15,14,334.00
2020,03,29,15,15,334.00
2020,03,29,15,16,495.30
2020,03,29,15,17,602.80
2020,03,29,15,18,578.00
2020,03,29,15,19,386.00
2020,03,29,15,20,359.70
2020,03,29,15,21,373.10
2020,03,29,15,22,399.00
2020,03,29,15,23,399.00
2020,03,29,15,24,703.10
2020,03,29,15,25,882.00
2020,03,29,15,26,448.20
2020,03,29,15,27,361.60
2020,03,29,15,28,333.10
2020,03,29,15,29,317.20
2020,03,29,15,30,295.20
2020,03,29,15,31,277.60
2020,03,29,15,32,276.60
2020,03,29,15,33,274.40
2020,03,29,15,34,277.30
2020,03,29,15,35,288.10
2020,03,29,15,36,300.30
2020,03,29,15,37,307.00
2020,03,29,15,38,301.10
2020,03,29,15,39,289.20
2020,03,29,15,40,275.20
2020,03,29,15,41,266.70
2020,03,29,15,42,264.00
2020,03,29,15,43,265.10
2020,03,29,15,44,268.90
2020,03,29,15,45,271.60
2020,03,29,15,46,272.00
2020,03,29,15,47,271.10
2020,03,29,15,48,270.80
2020,03,29,15,49,268.00
2020,03,29,15,50,264.60
2020,03,29,15,51,263.00
2020,03,29,15,52,259.50
2020,03,29,15,53,257.20
2020,03,29,15,54,253.40
2020,03,29,15,55,250.90
2020,03,29,15,56,249.50
2020,03,29,15,57,247.30
2020,03,29,15,58,245.00
2020,03,29,15,59,244.00
2020,03,29,16,00,247.10
2020,03,29,16,01,256.50
2020,03,29,16,02,261.80
2020,03,29,16,03,260.00
2020,03,29,16,04,260.80
2020,03,29,16,05,261.00
2020,03,29,16,06,258.00
2020,03,29,16,07,252.40
2020,03,29,16,08,244.80
2020,03,29,16,09,235.00
2020,03,29,16,10,226.70
2020,03,29,16,11,216.70
2020,03,29,16,12,206.30
2020,03,29,16,13,197.60
2020,03,29,16,14,188.30
2020,03,29,16,15,181.60
2020,03,29,16,16,176.00
2020,03,29,16,17,176.00
2020,03,29,16,18,173.40
2020,03,29,16,19,170.00
2020,03,29,16,20,171.60
2020,03,29,16,21,175.00
2020,03,29,16,22,180.40
2020,03,29,16,23,186.90
2020,03,29,16,24,193.80
2020,03,29,16,25,200.90
2020,03,29,16,26,207.60
2020,03,29,16,27,212.90
2020,03,29,16,28,214.00
2020,03,29,16,29,213.10
2020,03,29,16,30,211.30
2020,03,29,16,31,212.00
2020,03,29,16,32,207.90
2020,03,29,16,33,206.00
2020,03,29,16,34,206.60
2020,03,29,16,35,211.70
2020,03,29,16,36,207.70
2020,03,29,16,37,207.00
2020,03,29,16,38,208.60
2020,03,29,16,39,214.20
2020,03,29,16,40,217.00
2020,03,29,16,41,221.10
2020,03,29,16,42,233.40
2020,03,29,16,43,240.40
2020,03,29,16,44,250.90
2020,03,29,16,45,259.60
2020,03,29,16,46,265.10
2020,03,29,16,47,266.00
2020,03,29,16,48,263.10
2020,03,29,16,49,256.80
2020,03,29,16,50,250.60
2020,03,29,16,51,242.10
2020,03,29,16,52,236.70
2020,03,29,16,53,235.20
2020,03,29,16,54,234.00
2020,03,29,16,55,229.60
2020,03,29,16,56,228.50
2020,03,29,16,57,221.90
2020,03,29,16,58,215.60
2020,03,29,16,59,211.20
2020,03,29,17,00,201.80
2020,03,29,17,01,191.60
2020,03,29,17,02,184.90
2020,03,29,17,03,179.10
2020,03,29,17,04,176.20
2020,03,29,17,05,176.00
2020,03,29,17,06,176.00
2020,03,29,17,07,176.80
2020,03,29,17,08,178.00
2020,03,29,17,09,178.00
2020,03,29,17,10,176.40
2020,03,29,17,11,174.10
2020,03,29,17,12,171.90
2020,03,29,17,13,170.00